• In Russia
  • List of Countries
  • For 7 days
  • Water Temperature
  • Satellite Maps
  • Weather Map
  • Weather Widgets
  • user-avatar
    Login

    Hourly Weather Barcs

    Today, 17 October, Tuesday

    Time Temperature Precipitation Wind Pressure Humidity
    00:00 +14°C° 0 mm 0 mps 760 mmHg 75%
    01:00 +14°C° 0 mm 0 mps 760 mmHg 77%
    02:00 +13°C° 0 mm 0 mps 760 mmHg 78%
    03:00 +13°C° 0 mm 0 mps 760 mmHg 80%
    04:00 +13°C° 0 mm 0 mps 759 mmHg 81%
    05:00 +13°C° 0 mm 0 mps 759 mmHg 81%
    06:00 +13°C° 0 mm 0 mps 759 mmHg 81%
    07:00 +13°C° 0 mm 0 mps 759 mmHg 81%
    08:00 +16°C° 0 mm 0 mps 760 mmHg 72%
    09:00 +18°C° 0 mm 0 mps 760 mmHg 64%
    10:00 +20°C° 0 mm 0 mps 760 mmHg 56%
    11:00 +21°C° 0 mm 0 mps 759 mmHg 52%
    12:00 +25°C° 0 mm 1 mps 759 mmHg 49%
    13:00 +26°C° 0 mm 1 mps 759 mmHg 45%
    14:00 +25°C° 0 mm 1 mps 758 mmHg 48%
    15:00 +25°C° 0 mm 1 mps 758 mmHg 51%
    16:00 +22°C° 0 mm 0 mps 757 mmHg 54%
    17:00 +22°C° 0 mm 1 mps 757 mmHg 58%
    18:00 +21°C° 0 mm 1 mps 757 mmHg 63%
    19:00 +19°C° 0 mm 1 mps 757 mmHg 67%
    20:00 +18°C° 0 mm 1 mps 757 mmHg 69%
    21:00 +18°C° 0 mm 1 mps 757 mmHg 70%
    22:00 +18°C° 0 mm 1 mps 756 mmHg 72%
    23:00 +16°C° 0 mm 1 mps 756 mmHg 73%

    Tomorrow, 18 October, Wednesday

    Time Temperature Precipitation Wind Pressure Humidity
    00:00 +16°C° 0 mm 1 mps 756 mmHg 74%
    01:00 +16°C° 0 mm 1 mps 756 mmHg 76%
    02:00 +15°C° 0 mm 1 mps 755 mmHg 77%
    03:00 +15°C° 0 mm 1 mps 755 mmHg 78%
    04:00 +15°C° 0 mm 1 mps 755 mmHg 79%
    05:00 +15°C° 0 mm 1 mps 755 mmHg 80%
    06:00 +15°C° 0 mm 1 mps 755 mmHg 81%
    07:00 +15°C° 0 mm 1 mps 755 mmHg 81%
    08:00 +18°C° 0 mm 1 mps 754 mmHg 72%
    09:00 +20°C° 0 mm 1 mps 754 mmHg 64%
    10:00 +22°C° 0 mm 1 mps 754 mmHg 55%
    11:00 +23°C° 0 mm 2 mps 754 mmHg 49%
    12:00 +24°C° 0 mm 2 mps 753 mmHg 43%
    13:00 +26°C° 0 mm 2 mps 753 mmHg 37%
    14:00 +25°C° 0 mm 2 mps 753 mmHg 39%
    15:00 +24°C° 0 mm 2 mps 752 mmHg 42%
    16:00 +23°C° 0 mm 1 mps 752 mmHg 44%
    17:00 +22°C° 0 mm 1 mps 752 mmHg 47%
    18:00 +20°C° 0 mm 1 mps 752 mmHg 50%
    19:00 +18°C° 0 mm 1 mps 752 mmHg 53%
    20:00 +17°C° 0 mm 2 mps 752 mmHg 55%
    21:00 +16°C° 0 mm 2 mps 753 mmHg 57%
    22:00 +16°C° 0 mm 2 mps 753 mmHg 59%
    23:00 +15°C° 0 mm 2 mps 753 mmHg 61%

    Day after tomorrow, 19 October, Thursday

    Time Temperature Precipitation Wind Pressure Humidity
    00:00 +14°C° 0 mm 2 mps 753 mmHg 63%
    01:00 +14°C° 0 mm 2 mps 753 mmHg 64%
    02:00 +14°C° 0 mm 2 mps 753 mmHg 65%
    03:00 +13°C° 0 mm 2 mps 752 mmHg 66%
    04:00 +13°C° 0 mm 2 mps 752 mmHg 67%
    05:00 +13°C° 0 mm 2 mps 752 mmHg 67%
    06:00 +12°C° 0 mm 2 mps 753 mmHg 68%
    07:00 +12°C° 0 mm 2 mps 753 mmHg 68%
    08:00 +15°C° 0 mm 2 mps 753 mmHg 61%
    09:00 +17°C° 0 mm 2 mps 753 mmHg 54%
    10:00 +19°C° 0 mm 2 mps 753 mmHg 47%
    11:00 +21°C° 0 mm 2 mps 753 mmHg 44%
    12:00 +22°C° 0 mm 3 mps 753 mmHg 40%
    13:00 +24°C° 0 mm 3 mps 752 mmHg 37%
    14:00 +24°C° 0 mm 2 mps 752 mmHg 41%
    15:00 +23°C° 0 mm 2 mps 752 mmHg 45%
    16:00 +22°C° 0 mm 1 mps 752 mmHg 49%
    17:00 +21°C° 0 mm 1 mps 752 mmHg 53%
    18:00 +19°C° 0 mm 1 mps 752 mmHg 57%
    19:00 +16°C° 0 mm 1 mps 753 mmHg 61%
    20:00 +16°C° 0 mm 1 mps 753 mmHg 62%
    21:00 +15°C° 0 mm 1 mps 753 mmHg 64%
    22:00 +15°C° 0 mm 1 mps 753 mmHg 65%
    23:00 +14°C° 0 mm 1 mps 753 mmHg 68%

    20 October, Friday

    Time Temperature Precipitation Wind Pressure Humidity
    00:00 +14°C° 0 mm 1 mps 753 mmHg 70%
    01:00 +13°C° 0 mm 1 mps 753 mmHg 72%
    02:00 +13°C° 0 mm 1 mps 753 mmHg 74%
    03:00 +12°C° 0 mm 1 mps 753 mmHg 76%
    04:00 +12°C° 0 mm 1 mps 753 mmHg 77%
    05:00 +12°C° 0 mm 1 mps 754 mmHg 77%
    06:00 +12°C° 0 mm 1 mps 754 mmHg 77%
    07:00 +12°C° 0 mm 1 mps 754 mmHg 76%
    08:00 +14°C° 0 mm 2 mps 754 mmHg 68%
    09:00 +17°C° 0 mm 2 mps 754 mmHg 59%
    10:00 +19°C° 0 mm 2 mps 755 mmHg 51%
    11:00 +20°C° 0 mm 2 mps 754 mmHg 48%
    12:00 +22°C° 0 mm 3 mps 754 mmHg 45%
    13:00 +24°C° 0 mm 3 mps 754 mmHg 42%
    14:00 +23°C° 0 mm 2 mps 754 mmHg 46%
    15:00 +21°C° 0 mm 2 mps 754 mmHg 50%
    16:00 +22°C° 0 mm 1 mps 754 mmHg 55%
    17:00 +20°C° 0 mm 1 mps 754 mmHg 60%
    18:00 +19°C° 0 mm 1 mps 755 mmHg 66%
    19:00 +16°C° 0 mm 1 mps 755 mmHg 71%
    20:00 +16°C° 0 mm 1 mps 755 mmHg 73%
    21:00 +15°C° 0 mm 1 mps 755 mmHg 75%
    22:00 +15°C° 0 mm 1 mps 756 mmHg 77%
    23:00 +14°C° 0 mm 1 mps 756 mmHg 79%

    21 October, Saturday

    Time Temperature Precipitation Wind Pressure Humidity
    00:00 +14°C° 0 mm 1 mps 756 mmHg 81%
    01:00 +13°C° 0 mm 1 mps 756 mmHg 83%
    02:00 +13°C° 0 mm 1 mps 755 mmHg 84%
    03:00 +13°C° 0 mm 1 mps 755 mmHg 86%
    04:00 +12°C° 0 mm 1 mps 755 mmHg 87%
    05:00 +12°C° 0 mm 1 mps 755 mmHg 87%
    06:00 +12°C° 0 mm 1 mps 755 mmHg 87%
    07:00 +12°C° 0 mm 1 mps 755 mmHg 86%
    08:00 +14°C° 0 mm 2 mps 755 mmHg 77%
    09:00 +17°C° 0 mm 2 mps 755 mmHg 68%
    10:00 +19°C° 0 mm 2 mps 755 mmHg 58%
    11:00 +20°C° 0 mm 2 mps 755 mmHg 54%
    12:00 +22°C° 0 mm 3 mps 754 mmHg 50%
    13:00 +24°C° 0 mm 3 mps 754 mmHg 46%
    14:00 +23°C° 0 mm 2 mps 754 mmHg 50%
    15:00 +23°C° 0 mm 2 mps 753 mmHg 54%
    16:00 +21°C° 0 mm 2 mps 753 mmHg 57%
    17:00 +20°C° 0 mm 2 mps 753 mmHg 62%
    18:00 +18°C° 0 mm 2 mps 753 mmHg 67%
    19:00 +17°C° 0 mm 2 mps 753 mmHg 72%
    20:00 +16°C° 0 mm 2 mps 753 mmHg 74%
    21:00 +16°C° 0 mm 2 mps 753 mmHg 75%
    22:00 +16°C° 0 mm 2 mps 753 mmHg 76%
    23:00 +15°C° 0 mm 2 mps 753 mmHg 76%

    22 October, Sunday

    Time Temperature Precipitation Wind Pressure Humidity
    00:00 +15°C° 0 mm 2 mps 753 mmHg 77%
    01:00 +15°C° 0 mm 2 mps 753 mmHg 78%
    02:00 +13°C° 0 mm 3 mps 752 mmHg 78%
    03:00 +13°C° 0 mm 3 mps 752 mmHg 78%
    04:00 +13°C° 0 mm 3 mps 752 mmHg 78%
    05:00 +13°C° 0 mm 3 mps 752 mmHg 78%
    06:00 +13°C° 0 mm 3 mps 752 mmHg 78%
    07:00 +13°C° 0 mm 3 mps 752 mmHg 78%
    08:00 +16°C° 0 mm 3 mps 752 mmHg 71%
    09:00 +18°C° 0 mm 4 mps 752 mmHg 64%
    10:00 +20°C° 0 mm 4 mps 751 mmHg 57%
    11:00 +21°C° 0 mm 4 mps 751 mmHg 55%
    12:00 +22°C° 0 mm 4 mps 751 mmHg 54%
    13:00 +23°C° 0 mm 4 mps 750 mmHg 52%
    14:00 +22°C° 0.2 mm 3 mps 750 mmHg 57%
    15:00 +21°C° 0.2 mm 3 mps 750 mmHg 62%
    16:00 +20°C° 0.2 mm 2 mps 750 mmHg 68%
    17:00 +18°C° 0.4 mm 3 mps 751 mmHg 71%
    18:00 +17°C° 0.4 mm 4 mps 752 mmHg 74%
    19:00 +14°C° 0.4 mm 5 mps 752 mmHg 78%
    20:00 +13°C° 0.4 mm 5 mps 753 mmHg 78%
    21:00 +13°C° 0.4 mm 5 mps 753 mmHg 79%
    22:00 +12°C° 0.4 mm 4 mps 754 mmHg 80%
    23:00 +12°C° 0.3 mm 4 mps 754 mmHg 79%
    Show more